Location: Silverdale
(47.6506°N, 122.6941°W)
Time: 04:55:58
(UTC+00:00)

Altair - Pass Details

Date: 10 October 2022
Orbit: 1501 x 1682 km, 47.2° (Epoch: 05 December)

Event Time Altitude Azimuth Distance (km) Brightness Sun altitude
Rises 11:28:34 0° 232° (SW) 4,710 - -29.5°
Reaches altitude 10° 11:31:37 10° 229° (SW) 3,751 - -29.0°
Exits shadow 11:37:39 43° 210° (SSW) 2,123 7.8 -28.1°
Maximum altitude 11:40:58 62° 152° (SSE) 1,779 7.7 -27.6°
Drops below altitude 10° 11:50:42 10° 75° (ENE) 3,900 10.6 -26.0°
Sets 11:53:55 0° 72° (ENE) 4,907 11.5 -25.5°
